{"data":{"norad_id":55289,"intl_designator":"2023-010W","name":"STARLINK-5320","alt_names":[],"object_type":"PAYLOAD","status":"ACTIVE","operator":null,"country":"US","launch_date":"2023-01-19","launch_site_code":"AFWTR","launch_vehicle":null,"mission":null,"orbit_class":"UNKNOWN","rcs_meters":null,"size_class":null,"mass_kg":null,"dimensions":null,"purposes":["comms"],"wikipedia_slug":null,"has_3d_model":false,"image_url":null,"decayed_at":null,"tle_current":{"epoch":"2026-05-25T02:34:21.120096Z","epoch_age_seconds":72749,"freshness":"FRESH","line1":"1 55289U 23010W   26145.10718889 -.00000214  00000+0 -10163-4 0  9998","line2":"2 55289  69.9990 191.8644 0003563 267.5534  92.5217 14.98330758184710","mean_motion":14.98330758,"eccentricity":0.0003563,"inclination_deg":69.999,"raan_deg":191.8644,"arg_perigee_deg":267.5534,"mean_anomaly_deg":92.5217,"bstar":-1.0163e-5,"rev_number":18471,"period_min":96.106950505517,"perigee_km":569.57719400107,"apogee_km":574.52989978479,"semimajor_km":6950.1905468929,"source":"CELESTRAK","updated_at":"2026-05-25T13:38:17.734714Z"}}}